Location: Marcé
(47.5801°N, 0.3280°W)
Time: 03:20:05
(UTC+01:00)

Explorer 11/Cluster Stage 4 - Pass Details

Date: 07 December 2021
Orbit: 467 x 1255 km, 28.8° (Epoch: 26 January)

Event Time Altitude Azimuth Distance (km) Brightness Sun altitude
Rises 01:59:34 0° 210° (SSW) 3,192 - -61.7°
Reaches altitude 10° 02:04:59 10° 167° (SSE) 2,537 - -61.1°
Maximum altitude 02:05:27 10° 162° (SSE) 2,554 - -61.1°
Drops below altitude 10° 02:05:55 10° 158° (SSE) 2,582 - -61.0°
Sets 02:12:12 0° 117° (ESE) 3,810 - -60.4°
